CW4635 Weather Reports


Display with metric or nautical units.
time (UTC)temp
F
wind
direction
speed
MPH
gust
MPH
rain 1hr
in
rain 24hr
in
rain mn
in
humidity
%
barometer
mb
20260503204527 71 79 2.0 5.0 0.00 0.00 0.00 54 1012.4
20260503203029 69 131 1.0 4.0 0.00 0.00 0.00 57 1012.6
20260503201521 69 147 2.0 4.0 0.00 0.00 0.00 56 1012.9
20260503200021 69 105 3.0 6.0 0.00 0.00 0.00 55 1012.9
20260503194522 69 117 2.0 7.0 0.00 0.00 0.00 56 1013.0
20260503193019 69 113 3.0 6.0 0.00 0.00 0.00 55 1013.1
20260503191520 68 138 3.0 6.0 0.00 0.00 0.00 58 1013.4
20260503190016 67 119 3.0 7.0 0.00 0.00 0.00 59 1013.5
20260503184512 66 157 4.0 6.0 0.00 0.00 0.00 59 1013.7
20260503183011 64 153 5.0 8.0 0.00 0.00 0.00 62 1013.9
20260503181510 64 196 4.0 8.0 0.00 0.00 0.00 63 1014.0
20260503180017 64 190 4.0 10.0 0.00 0.00 0.00 64 1014.0
20260503174509 64 175 3.0 9.0 0.00 0.00 0.00 62 1014.0
20260503173009 65 184 4.0 7.0 0.00 0.00 0.00 60 1014.1
20260503171507 66 159 5.0 7.0 0.00 0.00 0.00 57 1014.1
20260503081533 59 272 1.0 4.0 0.00 0.00 0.00 67 1014.0
20260503071520 63 264 1.0 5.0 0.00 0.00 0.00 62 1013.8
20260503054515 62 263 2.0 4.0 0.00 0.00 0.00 69 1014.0
20260503053014 62 257 0.0 5.0 0.00 0.00 0.00 68 1014.0
20260503051510 63 253 1.0 4.0 0.00 0.00 0.00 67 1014.0
20260503050025 63 252 0.0 3.0 0.00 0.00 0.00 65 1013.8
20260503044510 64 252 0.0 3.0 0.00 0.00 0.00 65 1013.6
20260503043014 64 252 1.0 3.0 0.00 0.00 0.00 63 1013.6
20260503041510 65 252 2.0 3.0 0.00 0.00 0.00 62 1013.5
20260503040009 65 249 1.0 2.0 0.00 0.00 0.00 61 1013.4
20260503034508 66 249 0.0 1.0 0.00 0.00 0.00 58 1013.2
20260503033008 67 249 0.0 2.0 0.00 0.00 0.00 56 1013.0
20260503031507 68 249 1.0 4.0 0.00 0.00 0.00 53 1013.0
20260503030007 68 244 2.0 3.0 0.00 0.00 0.00 53 1013.0
20260503024508 70 56 1.0 3.0 0.00 0.00 0.00 57 1013.0
20260503023006 73 56 0.0 2.0 0.00 0.00 0.00 54 1013.0
20260503021507 74 56 0.0 3.0 0.00 0.00 0.00 50 1013.1
20260503020004 75 89 1.0 3.0 0.00 0.00 0.00 50 1013.2
20260503014504 76 89 0.0 2.0 0.00 0.00 0.00 49 1013.4
20260503013005 75 89 1.0 2.0 0.00 0.00 0.00 50 1013.4
20260503011605 75 89 1.0 5.0 0.00 0.00 0.00 51 1013.5
20260503010056 74 93 1.0 5.0 0.00 0.00 0.00 51 1013.6
20260503004554 72 148 1.0 3.0 0.00 0.00 0.00 55 1013.6
20260503003051 71 110 1.0 4.0 0.00 0.00 0.00 54 1013.7
20260503001558 70 171 3.0 6.0 0.00 0.00 0.00 53 1013.9
20260503000100 69 173 3.0 8.0 0.00 0.00 0.00 55 1014.1
20260502234548 70 159 4.0 8.0 0.00 0.00 0.00 56 1014.1
20260502233059 69 167 4.0 8.0 0.00 0.00 0.00 57 1014.4
20260502231558 69 184 4.0 7.0 0.00 0.00 0.00 58 1014.6
20260502230040 69 161 4.0 9.0 0.00 0.00 0.00 59 1014.7
20260502224537 68 192 5.0 8.0 0.00 0.00 0.00 60 1014.9
20260502223033 67 168 4.0 8.0 0.00 0.00 0.00 62 1015.1
20260502221529 65 157 4.0 8.0 0.00 0.00 0.00 65 1015.4
20260502220036 65 159 5.0 9.0 0.00 0.00 0.00 63 1015.6
20260502214526 65 141 4.0 7.0 0.00 0.00 0.00 65 1015.7
20260502213023 64 153 4.0 8.0 0.00 0.00 0.00 67 1015.9
20260502211533 63 134 3.0 9.0 0.00 0.00 0.00 69 1016.1
20260502210022 62 171 6.0 9.0 0.00 0.00 0.00 66 1016.2